TimeACST,TemperatureF,Dew PointF,Humidity,Sea Level PressureIn,VisibilityMPH,Wind Direction,Wind SpeedMPH,Gust SpeedMPH,PrecipitationIn,Events,Conditions,WindDirDegrees,DateUTC
12:00 AM,81,78,88,29.75,19,Calm,Calm,,,,Scattered Clouds,,2013-12-04 14:30:00
12:00 AM,80.6,78.8,94,29.74,6.2,Calm,Calm,-,N/A,Rain,Light Rain,0,2013-12-04 14:30:00
12:30 AM,81,78,88,29.75,,SSE,2.3,,,,,160,2013-12-04 15:00:00
12:30 AM,80.6,78.8,94,29.74,6.2,SSE,2.3,-,N/A,,Mostly Cloudy,160,2013-12-04 15:00:00
1:00 AM,80.6,78.8,94,29.74,6.2,SSE,5.8,-,N/A,,Mostly Cloudy,150,2013-12-04 15:30:00
1:30 AM,80.6,78.8,94,29.71,6.2,SE,5.8,-,N/A,,Mostly Cloudy,140,2013-12-04 16:00:00
2:00 AM,80.6,78.8,94,29.71,6.2,SE,4.6,-,N/A,,Scattered Clouds,140,2013-12-04 16:30:00
2:30 AM,80.6,78.8,94,29.71,6.2,East,4.6,-,N/A,,Mostly Cloudy,100,2013-12-04 17:00:00
3:00 AM,80,78,93,29.71,19,ESE,5.8,,,,Scattered Clouds,120,2013-12-04 17:30:00
3:00 AM,80.6,78.8,94,29.71,6.2,ESE,5.8,-,N/A,,Scattered Clouds,120,2013-12-04 17:30:00
3:30 AM,80,78,91,29.71,,ESE,5.8,,,,,110,2013-12-04 18:00:00
3:30 AM,80.6,78.8,94,29.71,6.2,ESE,5.8,-,N/A,,Mostly Cloudy,110,2013-12-04 18:00:00
4:00 AM,78.8,77.0,94,29.71,6.2,ESE,5.8,-,N/A,,Scattered Clouds,120,2013-12-04 18:30:00
4:30 AM,78.8,77.0,94,29.71,6.2,ESE,6.9,-,N/A,,Scattered Clouds,110,2013-12-04 19:00:00
5:00 AM,78.8,77.0,94,29.71,6.2,East,6.9,-,N/A,,Scattered Clouds,80,2013-12-04 19:30:00
5:30 AM,78.8,77.0,94,29.71,6.2,East,5.8,-,N/A,,Scattered Clouds,90,2013-12-04 20:00:00
6:00 AM,78,77,96,29.73,19,East,6.9,,,,Haze,90,2013-12-04 20:30:00
6:00 AM,78.8,77.0,94,29.74,6.2,East,6.9,-,N/A,,Scattered Clouds,90,2013-12-04 20:30:00
6:30 AM,78,77,96,29.75,,East,4.6,,,,,90,2013-12-04 21:00:00
6:30 AM,78.8,77.0,94,29.74,6.2,East,4.6,-,N/A,,Mostly Cloudy,90,2013-12-04 21:00:00
7:00 AM,78.8,77.0,94,29.74,6.2,ESE,5.8,-,N/A,,Mostly Cloudy,120,2013-12-04 21:30:00
7:30 AM,80.6,77.0,89,29.77,6.2,East,5.8,-,N/A,,Mostly Cloudy,100,2013-12-04 22:00:00
8:00 AM,80.6,77.0,89,29.77,6.2,East,8.1,-,N/A,,Mostly Cloudy,100,2013-12-04 22:30:00
8:30 AM,82.4,77.0,84,29.77,6.2,ESE,6.9,-,N/A,,Mostly Cloudy,120,2013-12-04 23:00:00
9:00 AM,83,77,79,29.78,19,East,8.1,,,,Partly Cloudy,90,2013-12-04 23:30:00
9:00 AM,84.2,77.0,79,29.77,6.2,East,8.1,-,N/A,,Mostly Cloudy,90,2013-12-04 23:30:00
9:30 AM,85,76,69,29.78,,ESE,6.9,,,,,110,2013-12-05 00:00:00
9:30 AM,86.0,77.0,74,29.77,6.2,ESE,6.9,-,N/A,,Partly Cloudy,110,2013-12-05 00:00:00
10:00 AM,87.8,77.0,70,29.77,6.2,SE,5.8,-,N/A,,Scattered Clouds,140,2013-12-05 00:30:00
10:30 AM,87.8,75.2,66,29.77,6.2,SSE,5.8,-,N/A,,Scattered Clouds,160,2013-12-05 01:00:00
11:00 AM,89.6,73.4,59,29.77,6.2,SSW,10.4,-,N/A,,Scattered Clouds,200,2013-12-05 01:30:00
11:30 AM,89.6,75.2,62,29.77,5.6,SSW,13.8,-,N/A,,Partly Cloudy,210,2013-12-05 02:00:00
11:39 AM,87.8,75.2,66,29.77,6.2,SSW,15.0,-,N/A,Thunderstorm,Thunderstorm,210,2013-12-05 02:09:00
11:53 AM,86.0,75.2,70,29.74,3.1,WSW,19.6,-,N/A,Thunderstorm,Thunderstorm,240,2013-12-05 02:23:00
12:00 PM,85,74,62,29.76,3,WSW,18.4,,,Thunderstorm,Thunderstorm,240,2013-12-05 02:30:00
12:00 PM,84.2,73.4,70,29.77,3.1,WSW,18.4,-,N/A,Thunderstorm,Thunderstorm,240,2013-12-05 02:30:00
12:30 PM,80,74,77,29.78,,North,12.7,,,,,0,2013-12-05 03:00:00
12:30 PM,80.6,73.4,79,29.77,2.5,North,12.7,-,N/A,Thunderstorm,Thunderstorm,360,2013-12-05 03:00:00
1:00 PM,78.8,75.2,89,29.74,4.3,North,8.1,-,N/A,Rain-Thunderstorm,Light Rain Showers,10,2013-12-05 03:30:00
1:18 PM,80.6,77.0,89,29.74,6.2,North,2.3,-,N/A,Rain,Light Rain Showers,360,2013-12-05 03:48:00
1:30 PM,80.6,77.0,89,29.71,6.2,WSW,4.6,-,N/A,Rain,Light Rain Showers,250,2013-12-05 04:00:00
2:00 PM,80.6,77.0,89,29.71,6.2,WNW,5.8,-,N/A,Rain,Light Rain Showers,290,2013-12-05 04:30:00
2:30 PM,82.4,77.0,84,29.68,6.2,NW,3.5,-,N/A,Rain,Light Rain,310,2013-12-05 05:00:00
3:00 PM,83,79,83,29.70,19,NNW,10.4,,,,Partly Cloudy,340,2013-12-05 05:30:00
3:00 PM,82.4,78.8,89,29.68,6.2,NNW,10.4,-,N/A,,Mostly Cloudy,340,2013-12-05 05:30:00
3:30 PM,84,78,76,29.71,,NNW,8.1,,,,,340,2013-12-05 06:00:00
3:30 PM,84.2,77.0,79,29.71,6.2,NNW,8.1,-,N/A,,Mostly Cloudy,340,2013-12-05 06:00:00
4:00 PM,86.0,77.0,74,29.68,6.2,WNW,11.5,-,N/A,,Mostly Cloudy,290,2013-12-05 06:30:00
4:30 PM,84.2,77.0,79,29.68,6.2,WNW,12.7,-,N/A,,Mostly Cloudy,300,2013-12-05 07:00:00
5:00 PM,84.2,77.0,79,29.68,6.2,NNW,8.1,-,N/A,,Mostly Cloudy,330,2013-12-05 07:30:00
5:16 PM,82.4,77.0,84,29.68,6.2,NW,15.0,-,N/A,Rain,Light Rain Showers,310,2013-12-05 07:46:00
5:26 PM,80.6,77.0,89,29.68,6.2,West,16.1,-,N/A,Rain,Light Rain Showers,280,2013-12-05 07:56:00
5:30 PM,78.8,77.0,94,29.68,5.0,West,13.8,-,N/A,Rain,Light Rain Showers,270,2013-12-05 08:00:00
5:52 PM,78.8,75.2,89,29.71,3.7,WNW,9.2,-,N/A,Rain,Light Rain Showers,290,2013-12-05 08:22:00
6:00 PM,78,75,87,29.71,7,WNW,8.1,,,Rain,Light Rain Showers,290,2013-12-05 08:30:00
6:00 PM,77.0,75.2,94,29.71,6.2,WNW,8.1,-,N/A,,Mostly Cloudy,290,2013-12-05 08:30:00
6:30 PM,79,75,83,29.73,,West,5.8,,,,,280,2013-12-05 09:00:00
6:30 PM,78.8,75.2,89,29.71,6.2,West,5.8,-,N/A,,Mostly Cloudy,280,2013-12-05 09:00:00
7:00 PM,80.6,75.2,84,29.74,6.2,SE,1.2,-,N/A,Rain,Light Rain,140,2013-12-05 09:30:00
7:30 PM,78.8,75.2,89,29.77,6.2,SE,6.9,-,N/A,Rain-Thunderstorm,Light Rain Showers,130,2013-12-05 10:00:00
7:38 PM,77.0,75.2,94,29.77,6.2,SE,18.4,-,N/A,Rain-Thunderstorm,Light Rain Showers,140,2013-12-05 10:08:00
8:00 PM,77.0,75.2,94,29.77,6.2,SE,15.0,-,N/A,Rain,Rain Showers,140,2013-12-05 10:30:00
8:30 PM,77.0,73.4,89,29.77,6.2,SSE,12.7,-,N/A,Rain,Rain Showers,150,2013-12-05 11:00:00
9:00 PM,77,75,91,29.77,12,SE,13.8,,,,Partly Cloudy,140,2013-12-05 11:30:00
9:00 PM,77.0,75.2,94,29.77,6.2,SE,13.8,-,N/A,Rain,Rain Showers,140,2013-12-05 11:30:00
9:30 PM,76,73,88,29.78,,ESE,11.5,,,,,120,2013-12-05 12:00:00
9:30 PM,77.0,73.4,89,29.77,6.2,ESE,11.5,-,N/A,Rain,Light Rain,120,2013-12-05 12:00:00
10:00 PM,77.0,73.4,89,29.80,6.2,ESE,12.7,-,N/A,,Mostly Cloudy,110,2013-12-05 12:30:00
10:30 PM,77.0,73.4,89,29.80,6.2,East,13.8,-,N/A,,Mostly Cloudy,90,2013-12-05 13:00:00
11:00 PM,77.0,73.4,89,29.80,6.2,East,11.5,-,N/A,,Mostly Cloudy,90,2013-12-05 13:30:00
11:30 PM,77.0,73.4,89,29.80,6.2,East,9.2,-,N/A,,Mostly Cloudy,100,2013-12-05 14:00:00